When you browse on this site, cookies collect data to enhance your experience and personalize the content and advertising you see.
Visit our Privacy Policy to learn more. By continuing to use the site, you agree to this use of cookies and data.
  • In Hungary
  • List of Countries
  • For 7 days
  • Water Temperature
  • Satellite Maps
  • Weather Map
  • News
  • Weather Widgets
  • user-avatar
    Login

    Hourly Weather Suffolk

    Today, 10 December, Monday

    Time Temperature Precipitation Wind Pressure Humidity
    00:00 +2°C° 0.9 mm 9 mps 759 mmHg 89%
    01:00 +1°C° 0 mm 8 mps 760 mmHg 89%
    02:00 +1°C° 0.6 mm 8 mps 760 mmHg 89%
    03:00 +1°C° 0.6 mm 8 mps 760 mmHg 89%
    04:00 +1°C° 0.6 mm 8 mps 760 mmHg 89%
    05:00 0°C° 0.6 mm 7 mps 760 mmHg 88%
    06:00 0°C° 0.6 mm 7 mps 760 mmHg 87%
    07:00 -1°C° 0.6 mm 7 mps 761 mmHg 86%
    08:00 -1°C° 0.8 mm 7 mps 761 mmHg 85%
    09:00 -1°C° 0.8 mm 6 mps 762 mmHg 84%
    10:00 -1°C° 0.8 mm 6 mps 763 mmHg 83%
    11:00 -1°C° 0.3 mm 6 mps 763 mmHg 81%
    12:00 +1°C° 0.3 mm 6 mps 763 mmHg 79%
    13:00 +1°C° 0.3 mm 6 mps 763 mmHg 77%
    14:00 +1°C° 0 mm 6 mps 763 mmHg 78%
    15:00 +1°C° 0 mm 5 mps 763 mmHg 79%
    16:00 +1°C° 0 mm 5 mps 763 mmHg 80%
    17:00 +1°C° 0 mm 5 mps 763 mmHg 80%
    18:00 +1°C° 0 mm 4 mps 764 mmHg 81%
    19:00 0°C° 0 mm 4 mps 764 mmHg 81%
    20:00 0°C° 0 mm 4 mps 765 mmHg 80%
    21:00 0°C° 0 mm 4 mps 765 mmHg 80%
    22:00 +1°C° 0 mm 3 mps 765 mmHg 79%
    23:00 +1°C° 0 mm 3 mps 765 mmHg 80%

    Tomorrow, 11 December, Tuesday

    Time Temperature Precipitation Wind Pressure Humidity
    00:00 +1°C° 0 mm 3 mps 765 mmHg 80%
    01:00 +1°C° 0 mm 3 mps 765 mmHg 80%
    02:00 +1°C° 0 mm 3 mps 765 mmHg 80%
    03:00 +1°C° 0 mm 3 mps 765 mmHg 81%
    04:00 0°C° 0 mm 3 mps 765 mmHg 82%
    05:00 0°C° 0 mm 3 mps 765 mmHg 83%
    06:00 -1°C° 0 mm 3 mps 765 mmHg 85%
    07:00 -1°C° 0 mm 3 mps 765 mmHg 86%
    08:00 0°C° 0 mm 3 mps 766 mmHg 83%
    09:00 +1°C° 0 mm 3 mps 766 mmHg 79%
    10:00 +2°C° 0 mm 3 mps 766 mmHg 76%
    11:00 +3°C° 0 mm 3 mps 766 mmHg 72%
    12:00 +5°C° 0 mm 2 mps 765 mmHg 68%
    13:00 +6°C° 0 mm 2 mps 765 mmHg 64%
    14:00 +5°C° 0 mm 2 mps 765 mmHg 66%
    15:00 +5°C° 0 mm 2 mps 765 mmHg 69%
    16:00 +5°C° 0 mm 2 mps 764 mmHg 71%
    17:00 +3°C° 0 mm 2 mps 765 mmHg 76%
    18:00 +2°C° 0 mm 2 mps 765 mmHg 82%
    19:00 0°C° 0 mm 3 mps 765 mmHg 87%
    20:00 0°C° 0 mm 3 mps 765 mmHg 89%
    21:00 -1°C° 0 mm 3 mps 765 mmHg 91%
    22:00 -1°C° 0 mm 3 mps 765 mmHg 93%
    23:00 -1°C° 0 mm 3 mps 765 mmHg 92%

    Day after tomorrow, 12 December, Wednesday

    Time Temperature Precipitation Wind Pressure Humidity
    00:00 -2°C° 0 mm 3 mps 765 mmHg 90%
    01:00 -2°C° 0 mm 3 mps 765 mmHg 89%
    02:00 -2°C° 0 mm 3 mps 765 mmHg 86%
    03:00 -1°C° 0 mm 3 mps 765 mmHg 83%
    04:00 -1°C° 0 mm 3 mps 765 mmHg 80%
    05:00 -2°C° 0 mm 3 mps 765 mmHg 80%
    06:00 -2°C° 0 mm 3 mps 766 mmHg 80%
    07:00 -2°C° 0 mm 3 mps 766 mmHg 80%
    08:00 -1°C° 0 mm 3 mps 767 mmHg 75%
    09:00 +1°C° 0 mm 3 mps 767 mmHg 70%
    10:00 +2°C° 0 mm 3 mps 767 mmHg 65%
    11:00 +3°C° 0 mm 3 mps 767 mmHg 62%
    12:00 +5°C° 0 mm 2 mps 767 mmHg 59%
    13:00 +6°C° 0 mm 2 mps 767 mmHg 57%
    14:00 +6°C° 0 mm 2 mps 767 mmHg 61%
    15:00 +6°C° 0 mm 2 mps 768 mmHg 64%
    16:00 +5°C° 0 mm 2 mps 768 mmHg 68%
    17:00 +4°C° 0 mm 2 mps 768 mmHg 72%
    18:00 +3°C° 0 mm 2 mps 769 mmHg 76%
    19:00 +3°C° 0 mm 1 mps 769 mmHg 80%
    20:00 +3°C° 0 mm 1 mps 770 mmHg 80%
    21:00 +3°C° 0 mm 1 mps 770 mmHg 81%
    22:00 +1°C° 0 mm 0 mps 770 mmHg 82%
    23:00 +2°C° 0 mm 1 mps 770 mmHg 82%

    13 December, Thursday

    Time Temperature Precipitation Wind Pressure Humidity
    00:00 +2°C° 0 mm 1 mps 770 mmHg 82%
    01:00 +2°C° 0 mm 1 mps 770 mmHg 82%
    02:00 +2°C° 0 mm 1 mps 770 mmHg 82%
    03:00 +2°C° 0 mm 1 mps 770 mmHg 83%
    04:00 +2°C° 0 mm 1 mps 770 mmHg 83%
    05:00 +2°C° 0 mm 1 mps 771 mmHg 83%
    06:00 +2°C° 0 mm 1 mps 771 mmHg 83%
    07:00 +2°C° 0 mm 1 mps 771 mmHg 83%
    08:00 +4°C° 0 mm 1 mps 772 mmHg 78%
    09:00 +6°C° 0 mm 1 mps 772 mmHg 73%
    10:00 +7°C° 0 mm 1 mps 772 mmHg 68%
    11:00 +8°C° 0 mm 1 mps 772 mmHg 66%
    12:00 +8°C° 0 mm 2 mps 771 mmHg 63%
    13:00 +9°C° 0 mm 2 mps 771 mmHg 60%
    14:00 +10°C° 0 mm 1 mps 771 mmHg 64%
    15:00 +10°C° 0 mm 1 mps 771 mmHg 68%
    16:00 +10°C° 0 mm 1 mps 770 mmHg 72%
    17:00 +9°C° 0 mm 1 mps 770 mmHg 75%
    18:00 +8°C° 0 mm 1 mps 770 mmHg 78%
    19:00 +6°C° 0 mm 2 mps 770 mmHg 81%
    20:00 +6°C° 0 mm 2 mps 770 mmHg 83%
    21:00 +6°C° 0 mm 2 mps 770 mmHg 85%
    22:00 +6°C° 0 mm 2 mps 770 mmHg 88%
    23:00 +6°C° 0 mm 2 mps 769 mmHg 88%

    14 December, Friday

    Time Temperature Precipitation Wind Pressure Humidity
    00:00 +6°C° 0 mm 2 mps 769 mmHg 89%
    01:00 +6°C° 0 mm 2 mps 769 mmHg 89%
    02:00 +7°C° 0 mm 2 mps 768 mmHg 90%
    03:00 +7°C° 0 mm 2 mps 768 mmHg 90%
    04:00 +7°C° 0 mm 3 mps 768 mmHg 90%
    05:00 +8°C° 0 mm 3 mps 768 mmHg 90%
    06:00 +8°C° 0 mm 3 mps 767 mmHg 91%
    07:00 +9°C° 0 mm 3 mps 767 mmHg 91%
    08:00 +11°C° 0 mm 4 mps 767 mmHg 86%
    09:00 +13°C° 0 mm 5 mps 767 mmHg 81%
    10:00 +15°C° 0 mm 5 mps 767 mmHg 76%
    11:00 +16°C° 0 mm 6 mps 766 mmHg 73%
    12:00 +16°C° 0 mm 6 mps 765 mmHg 71%
    13:00 +17°C° 0 mm 7 mps 763 mmHg 69%
    14:00 +17°C° 0.1 mm 6 mps 763 mmHg 73%
    15:00 +16°C° 0.1 mm 6 mps 762 mmHg 77%
    16:00 +15°C° 0.1 mm 5 mps 762 mmHg 81%
    17:00 +15°C° 0.5 mm 6 mps 761 mmHg 83%
    18:00 +16°C° 0.5 mm 7 mps 760 mmHg 84%
    19:00 +16°C° 0.5 mm 7 mps 760 mmHg 85%
    20:00 +16°C° 3.1 mm 7 mps 759 mmHg 87%
    21:00 +16°C° 3.1 mm 8 mps 757 mmHg 89%
    22:00 +16°C° 3.1 mm 8 mps 756 mmHg 91%
    23:00 +17°C° 6.5 mm 7 mps 756 mmHg 93%

    15 December, Saturday

    Time Temperature Precipitation Wind Pressure Humidity
    00:00 +17°C° 6.5 mm 6 mps 755 mmHg 94%
    01:00 +17°C° 6.5 mm 6 mps 754 mmHg 95%
    02:00 +17°C° 3.6 mm 6 mps 753 mmHg 95%
    03:00 +17°C° 3.6 mm 6 mps 753 mmHg 94%
    04:00 +17°C° 3.6 mm 6 mps 753 mmHg 94%
    05:00 +16°C° 2.4 mm 6 mps 753 mmHg 93%
    06:00 +15°C° 2.4 mm 5 mps 753 mmHg 92%
    07:00 +14°C° 2.4 mm 5 mps 753 mmHg 91%
    08:00 +14°C° 0 mm 5 mps 753 mmHg 85%
    09:00 +14°C° 0 mm 4 mps 753 mmHg 79%
    10:00 +13°C° 0 mm 4 mps 753 mmHg 72%
    11:00 +14°C° 0 mm 4 mps 752 mmHg 69%
    12:00 +15°C° 0 mm 4 mps 752 mmHg 66%
    13:00 +17°C° 0 mm 4 mps 751 mmHg 63%
    14:00 +14°C° 0.5 mm 4 mps 751 mmHg 68%
    15:00 +13°C° 0.5 mm 5 mps 752 mmHg 73%
    16:00 +12°C° 0.5 mm 5 mps 752 mmHg 78%
    17:00 +10°C° 0 mm 5 mps 752 mmHg 78%
    18:00 +9°C° 0 mm 5 mps 752 mmHg 78%
    19:00 +8°C° 0 mm 5 mps 753 mmHg 79%
    20:00 +7°C° 0 mm 5 mps 753 mmHg 80%
    21:00 +7°C° 0 mm 5 mps 752 mmHg 82%
    22:00 +6°C° 0 mm 5 mps 752 mmHg 84%
    23:00 +6°C° 0.4 mm 5 mps 752 mmHg 84%
    Show more